| time (UTC) | temp C | wind direction | speed KPH | gust KPH | rain 1hr cm | rain 24hr cm | rain mn cm | humidity % | barometer mb |
| 20260504120245 | 16 | 0.0 | 0.0 | 0.00 | 0.00 | 0.00 | 51 | 1011.7 | |
| 20260504110720 | 16 | 0.0 | 0.0 | 0.00 | 0.00 | 0.00 | 50 | 1010.8 | |
| 20260504081723 | 17 | 0.0 | 0.0 | 0.00 | 0.00 | 0.00 | 51 | 1007.0 | |
| 20260504080256 | 17 | 0.0 | 0.0 | 0.00 | 0.00 | 0.00 | 51 | 1006.8 | |
| 20260504060127 | 17 | 0.0 | 0.0 | 0.00 | 0.00 | 0.00 | 47 | 1004.6 | |
| 20260504045422 | 17 | 0.0 | 0.0 | 0.00 | 0.00 | 0.00 | 48 | 1003.6 | |
| 20260504044133 | 17 | 0.0 | 0.0 | 0.00 | 0.00 | 0.00 | 49 | 1003.6 | |
| 20260504042648 | 17 | 0.0 | 0.0 | 0.00 | 0.00 | 0.00 | 48 | 1003.2 | |
| 20260504041419 | 17 | 0.0 | 0.0 | 0.00 | 0.00 | 0.00 | 49 | 1003.1 | |
| 20260504035929 | 17 | 0.0 | 0.0 | 0.00 | 0.00 | 0.00 | 49 | 1002.8 | |
| 20260504034716 | 17 | 0.0 | 0.0 | 0.00 | 0.00 | 0.00 | 49 | 1002.8 | |
| 20260504033513 | 17 | 0.0 | 0.0 | 0.00 | 0.00 | 0.00 | 49 | 1002.7 | |
| 20260504032133 | 17 | 0.0 | 0.0 | 0.00 | 0.00 | 0.00 | 49 | 1002.8 | |
| 20260504030833 | 17 | 0.0 | 0.0 | 0.00 | 0.00 | 0.00 | 49 | 1002.6 | |
| 20260504025557 | 17 | 0.0 | 0.0 | 0.00 | 0.00 | 0.00 | 49 | 1002.5 | |
| 20260504024108 | 17 | 0.0 | 0.0 | 0.00 | 0.00 | 0.00 | 49 | 1002.2 | |
| 20260504022617 | 17 | 0.0 | 0.0 | 0.00 | 0.00 | 0.00 | 49 | 1002.2 | |
| 20260504021414 | 17 | 0.0 | 0.0 | 0.00 | 0.00 | 0.00 | 51 | 1002.5 | |
| 20260504020002 | 17 | 0.0 | 0.0 | 0.00 | 0.00 | 0.00 | 52 | 1002.0 | |
| 20260504014537 | 17 | 0.0 | 0.0 | 0.00 | 0.00 | 0.00 | 52 | 1002.0 | |
| 20260504013248 | 17 | 0.0 | 0.0 | 0.00 | 0.00 | 0.00 | 54 | 1002.0 | |
| 20260504011946 | 16 | 0.0 | 0.0 | 0.00 | 0.00 | 0.00 | 54 | 1002.2 | |
| 20260504010505 | 16 | 0.0 | 0.0 | 0.00 | 0.00 | 0.00 | 54 | 1002.3 | |
| 20260504005212 | 16 | 0.0 | 0.0 | 0.00 | 0.00 | 0.00 | 54 | 1002.3 | |
| 20260504003717 | 16 | 0.0 | 0.0 | 0.00 | 0.00 | 0.00 | 55 | 1002.0 | |
| 20260504002305 | 16 | 0.0 | 0.0 | 0.00 | 0.00 | 0.00 | 56 | 1002.0 | |
| 20260504000924 | 16 | 0.0 | 0.0 | 0.00 | 0.00 | 0.00 | 56 | 1002.1 | |
| 20260503235647 | 16 | 0.0 | 0.0 | 0.00 | 0.00 | 0.00 | 56 | 1001.8 | |
| 20260503234318 | 16 | 0.0 | 0.0 | 0.00 | 0.00 | 0.00 | 57 | 1001.6 | |
| 20260503232943 | 16 | 0.0 | 0.0 | 0.00 | 0.00 | 0.00 | 58 | 1001.3 | |
| 20260503231632 | 16 | 0.0 | 0.0 | 0.00 | 0.00 | 0.00 | 58 | 1001.3 | |
| 20260503230214 | 16 | 0.0 | 0.0 | 0.00 | 0.00 | 0.00 | 58 | 1001.1 | |
| 20260503224738 | 16 | 0.0 | 0.0 | 0.00 | 0.00 | 0.00 | 59 | 1000.9 | |
| 20260503223502 | 16 | 0.0 | 0.0 | 0.00 | 0.00 | 0.00 | 59 | 1000.8 | |
| 20260503222010 | 16 | 0.0 | 0.0 | 0.00 | 0.00 | 0.00 | 62 | 1000.5 | |
| 20260503220810 | 16 | 0.0 | 0.0 | 0.00 | 0.00 | 0.00 | 61 | 1000.3 | |
| 20260503215605 | 16 | 0.0 | 0.0 | 0.00 | 0.00 | 0.00 | 61 | 1000.1 | |
| 20260503214108 | 16 | 0.0 | 0.0 | 0.00 | 0.00 | 0.00 | 61 | 999.9 | |
| 20260503212620 | 16 | 0.0 | 0.0 | 0.00 | 0.00 | 0.00 | 61 | 999.6 | |
| 20260503211411 | 16 | 0.0 | 0.0 | 0.00 | 0.00 | 0.00 | 61 | 999.2 | |
| 20260503210111 | 16 | 0.0 | 0.0 | 0.00 | 0.00 | 0.00 | 61 | 999.2 | |
| 20260503204851 | 16 | 0.0 | 0.0 | 0.00 | 0.00 | 0.00 | 61 | 999.2 | |
| 20260503203442 | 16 | 0.0 | 0.0 | 0.00 | 0.00 | 0.00 | 61 | 999.0 | |
| 20260503202004 | 16 | 0.0 | 0.0 | 0.00 | 0.00 | 0.00 | 61 | 998.9 | |
| 20260503200758 | 16 | 0.0 | 0.0 | 0.00 | 0.00 | 0.00 | 61 | 998.9 | |
| 20260503195438 | 16 | 0.0 | 0.0 | 0.00 | 0.00 | 0.00 | 62 | 999.1 | |
| 20260503194110 | 16 | 0.0 | 0.0 | 0.00 | 0.00 | 0.00 | 62 | 998.8 | |
| 20260503192619 | 17 | 0.0 | 0.0 | 0.00 | 0.00 | 0.00 | 63 | 998.5 | |
| 20260503191235 | 17 | 0.0 | 0.0 | 0.00 | 0.00 | 0.00 | 66 | 998.4 | |
| 20260503185926 | 17 | 0.0 | 0.0 | 0.00 | 0.00 | 0.00 | 67 | 998.3 | |
| 20260503184656 | 17 | 0.0 | 0.0 | 0.00 | 0.00 | 0.00 | 67 | 998.3 | |
| 20260503183438 | 17 | 0.0 | 0.0 | 0.00 | 0.00 | 0.00 | 67 | 998.4 | |
| 20260503182200 | 17 | 0.0 | 0.0 | 0.00 | 0.00 | 0.00 | 68 | 998.1 | |
| 20260503180858 | 17 | 0.0 | 0.0 | 0.00 | 0.00 | 0.00 | 68 | 997.6 | |
| 20260503175613 | 17 | 0.0 | 0.0 | 0.00 | 0.00 | 0.00 | 69 | 997.2 | |
| 20260503174353 | 17 | 0.0 | 0.0 | 0.00 | 0.00 | 0.00 | 70 | 997.5 | |
| 20260503172916 | 17 | 0.0 | 0.0 | 0.00 | 0.00 | 0.00 | 71 | 997.3 | |
| 20260503171643 | 17 | 0.0 | 0.0 | 0.00 | 0.00 | 0.00 | 71 | 997.3 | |
| 20260503170254 | 17 | 0.0 | 0.0 | 0.00 | 0.00 | 0.00 | 72 | 997.1 |